[Iaude] MPEC D30: 2024 CM8 [a=2.81,e=0.70,i=12.7,H=21.6]
    mpec at cfa.harvard.edu 
    mpec at cfa.harvard.edu
       
    Sat Feb 17 01:57:39 EST 2024
    
    
  
M.P.E.C. 2024-D30                             Issued 2024 February 17, 06:56 UT
     The Minor Planet Electronic Circulars contain information on unusual
         minor planets, routine data on comets and natural satellites,
         and occasional editorial announcements.  They are published
    on behalf of Division F of the International Astronomical Union by the
          Minor Planet Center, Smithsonian Astrophysical Observatory,
                          Cambridge, MA 02138, U.S.A.
			  
             Prepared using the Tamkin Foundation Computer Network
                              MPC at CFA.HARVARD.EDU
            URL https://www.minorplanetcenter.net/    ISSN 1523-6714
                                    2024 CM8                                    
Observations:
     K24C08M*1C2024 02 15.33378508 11 05.464+56 56 27.38         21.01GVED030G96
     K24C08M 1C2024 02 15.33904408 11 06.760+56 56 14.35         21.07GVED030G96
     K24C08M 1C2024 02 15.34956208 11 09.208+56 55 48.94         20.43GVED030G96
     K24C08M  C2024 02 15.38132408 11 18.604+56 54 42.49         21.21GVED030F51
     K24C08M  C2024 02 15.39220908 11 19.334+56 54 03.85         20.7 GVED030H01
     K24C08M  C2024 02 15.40004308 11 21.214+56 53 44.62         20.9 GVED030H01
     K24C08M  C2024 02 15.40701108 11 22.903+56 53 27.55         20.9 GVED030H01
     K24C08M  C2024 02 15.41283108 11 24.308+56 53 13.36         20.9 GVED030H01
     K24C08M KC2024 02 15.44128108 11 31.265+56 52 04.91         21.71GVED030I52
     K24C08M KC2024 02 15.44428308 11 32.003+56 51 57.85         21.42GVED030I52
     K24C08M KC2024 02 15.44728508 11 32.564+56 51 50.08         21.45GVED030I52
     K24C08M KC2024 02 16.17455608 14 32.093+56 23 47.65         20.52GVED030I52
     K24C08M KC2024 02 16.17784308 14 32.802+56 23 40.78         20.96GVED030I52
     K24C08M KC2024 02 16.18112408 14 33.554+56 23 32.68         20.92GVED030I52
     K24C08M  C2024 02 16.18307308 14 33.757+56 23 28.71         20.7 GVED030H01
     K24C08M KC2024 02 16.18775608 14 34.951+56 23 18.02         21.19GVED030I52
     K24C08M KC2024 02 16.19346608 14 36.03 +56 23 03.8          20.5 GXED030858
     K24C08M KC2024 02 16.19681208 14 36.814+56 22 57.05         20.8 GVED030H01
     K24C08M KC2024 02 16.20351208 14 38.274+56 22 42.03         21.1 GVED030H01
     K24C08M KC2024 02 16.20533208 14 38.60 +56 22 36.9          20.8 GXED030858
     K24C08M KC2024 02 16.20820808 14 39.301+56 22 31.34         20.9 GVED030H01
     K24C08M KC2024 02 16.21624108 14 41.00 +56 22 11.6          21.0 GXED030858
     K24C08M KC2024 02 17.12643808 18 08.28 +55 47 37.3          20.5 GXED030858
     K24C08M KC2024 02 17.13743408 18 10.55 +55 47 12.4          21.1 GXED030858
     K24C08M KC2024 02 17.14843108 18 12.79 +55 46 48.6                XED030858
     K24C08M  C2024 02 17.24882108 18 33.325+55 43 06.29         21.9 GVED030H01
     K24C08M  C2024 02 17.25501608 18 34.575+55 42 52.26         21.5 GVED030H01
     K24C08M  C2024 02 17.26798708 18 37.207+55 42 23.11         21.8 GVED030H01
     K24C08M  C2024 02 17.27212208 18 38.029+55 42 13.52         21.5 GVED030H01
Observer details:
858 Tebbutt Observatory, Edgewood.  Observer F. B. Zoltowski.  0.51-m f/8.1
    Schmidt-Cassegrain + CCD.
F51 Pan-STARRS 1, Haleakala.  Observers J. Herman, T. Lowe, P. Minguez, A.
    Schultz, I. Smith.  Measurers K. Chambers, T. de Boer, J. Fairlamb, H.
    Gao, M. Huber, C.-C. Lin, E. Magnier, Y. Ramanjooloo, R. Wainscoat, R.
    Weryk.  1.8-m Ritchey-Chretien + CCD.
G96 Mt. Lemmon Survey.  Observers V. F. Carvajal, J. K. Hogan.  Measurers T.
    Beuden, V. F. Carvajal, D. Fay, J. B. Fazekas, D. C. Fuls, A. R. Gibbs, A.
    D. Grauer, H. Groeller, J. K. Hogan, R. A. Kowalski, S. M. Larson, G. J.
    Leonard, D. Rankin, R. L. Seaman, F. C. Shelly, K. W. Wierzchos.  1.5-m
    reflector + 10K CCD.
H01 Magdalena Ridge Observatory, Socorro.  Observers W. H. Ryan, E. V. Ryan.
    Measurer W. H. Ryan.  2.4-m f/8.9 Ritchey-Chretien + CCD.
I52 Steward Observatory, Mt. Lemmon Station.  Observer J. B. Fazekas.
    Measurers E. C. Beshore, D. Fay, J. B. Fazekas, D. C. Fuls, A. R. Gibbs,
    A. D. Grauer, H. Groeller, J. K. Hogan, R. A. Kowalski, S. M. Larson, G.
    J. Leonard, D. Rankin, R. L. Seaman, F. C. Shelly, K. W. Wierzchos.  1.0-m
    prime focus + CCD.
Orbital elements:
2024 CM8                                                 Earth MOID = 0.0586 AU
Epoch 2024 Mar. 31.0 TT = JDT 2460400.5                 MPC                     
M  22.33337              (2000.0)            P               Q                  
n   0.20967034     Peri.  330.45889     +0.45713447     -0.86201836             
a   2.8061532      Node    91.56485     +0.85293009     +0.35511533             
e   0.6985700      Incl.   12.65395     +0.25206814     +0.36168694             
P   4.70           H   21.66          G   0.15           U   9                  
Residuals in seconds of arc
240215 G96  0.2-  0.2+    240215 I52  1.0-  0.1-    240216 H01  0.0   0.1+
240215 G96  0.2+  0.1-    240216 I52  0.1+  0.2-    240216 858  0.1-  0.8-
240215 G96  0.1-  0.1-    240216 I52  0.0   0.3+    240217 858  0.2-  0.2+
240215 F51  0.1-  0.2+    240216 I52  0.3+  0.4-    240217 858  0.2-  0.6-
240215 H01  0.0   0.1+    240216 H01  0.3-  0.3+    240217 858  0.5-  0.3-
240215 H01  0.0   0.0     240216 I52  0.3-  0.0     240217 H01  0.0   0.1+
240215 H01  0.0   0.0     240216 858  0.0   0.7-    240217 H01  0.0   0.0
240215 H01  0.0   0.1+    240216 H01  0.1+  0.2-    240217 H01  0.1+  0.1+
240215 I52  0.3+  0.0     240216 H01  0.0   0.1+    240217 H01  0.0   0.1-
240215 I52  0.4+  0.3+    240216 858  0.2-  0.5-
Ephemeris:
2024 CM8                 a,e,i = 2.81, 0.70, 13                  q = 0.8459
Date    TT    R. A. (2000) Decl.     Delta      r    Elong.  Phase     V
2024 01 18    00 25 28.1 +43 26 19   0.1246  0.9893    88.9    83.8    20.0
...
2024 02 02    06 13 55.2 +66 36 58   0.2112  1.1165   123.7    47.2    20.3
...
2024 02 10    07 42 43.6 +60 40 26   0.2869  1.1915   130.0    39.4    20.9
...
2024 02 16    08 13 49.5 +56 30 25   0.3501  1.2497   132.1    35.9    21.3
2024 02 17    08 17 38.8 +55 52 19   0.3611  1.2595   132.3    35.5    21.4
2024 02 18    08 21 12.1 +55 15 11   0.3722  1.2693   132.4    35.1    21.5
...
2024 02 24    08 38 21.2 +51 50 55   0.4413  1.3288   132.7    33.2    21.9
...
2024 03 03    08 54 37.5 +47 57 50   0.5403  1.4087   131.5    31.8    22.4
...
2024 03 18    09 17 10.7 +41 58 17   0.7466  1.5588   126.4    30.9    23.3
A. U. Tomatic                (C) Copyright 2024 MPC           M.P.E.C. 2024-D30
    
    
More information about the Iaude
mailing list